San Carlos, CA

8:09 PM PDT on June 26, 2017 (GMT -0700)
San Carlos

Weather History for KSQL - July, 2013

Change the Weather History Date:

Tuesday, July 23, 2013

  Actual Average Record
Temperature  
Mean Temperature 68 °F -  
Max Temperature 75 °F 81 °F 100 °F (2006)
Min Temperature 60 °F 55 °F 48 °F (1973)
Cooling Degree Days 2    
Growing Degree Days 18 (Base 50)    
Moisture  
Dew Point 57 °F    
Average Humidity 77    
Maximum Humidity 88    
Minimum Humidity 53    
Precipitation  
Precipitation 0.00 in - - ()
Sea Level Pressure  
Sea Level Pressure 29.98 in    
Wind  
Wind Speed 6 mph (North)    
Max Wind Speed 15 mph    
Max Gust Speed -    
Visibility 10 miles    
Events Rain    
Averages and records for this station are not official NWS values.
T = Trace of Precipitation, MM = Missing Value Source: NWS Daily Summary

Daily Weather History Graph

Daily Weather History Graph

Search for Another Location

Airport or City:

Trip Planner

Search our weather history database for the weather conditions in past years. The results will help you decide how hot, cold, wet, or windy it might be!

Date:

Astronomy

Jul. 23, 2013 Rise Set
Actual Time 6:06 AM PDT 8:24 PM PDT
Civil Twilight 5:36 AM PDT 8:54 PM PDT
Nautical Twilight 4:59 AM PDT 9:30 PM PDT
Astronomical Twilight 4:19 AM PDT 10:10 PM PDT
Moon 8:59 PM PDT (7/23) 7:18 AM PDT (7/23)
Length of Visible Light 15h 17m
Length of Day
14h 18m
Full, 98% of the Moon is Illuminated
Jul 23
Full
Jul 29
Last Quarter
Aug 6
New
Aug 14
First Quarter
Aug 20
Full

Hourly Weather History & Observations

Time (PDT) Temp. Dew Point Humidity Pressure Visibility Wind Dir Wind Speed Gust Speed Precip Events Conditions
12:15 AM 62.6 °F 59.0 °F 88% 29.97 in 10.0 mi North 10.4 mph - N/A   Clear
12:35 AM 62.6 °F 57.2 °F 82% 29.97 in 10.0 mi North 6.9 mph - N/A   Clear
12:55 AM 60.8 °F 57.2 °F 88% 29.97 in 10.0 mi NNW 5.8 mph - N/A   Clear
1:15 AM 60.8 °F 57.2 °F 88% 29.97 in 10.0 mi North 3.5 mph - N/A   Clear
1:30 AM 62.6 °F 57.2 °F 82% 29.97 in 10.0 mi NW 4.6 mph - N/A   Clear
1:55 AM 62.6 °F 57.2 °F 82% 29.97 in 10.0 mi North 6.9 mph - N/A   Clear
2:15 AM 62.6 °F 57.2 °F 82% 29.98 in 10.0 mi North 4.6 mph - N/A   Clear
2:35 AM 62.6 °F 57.2 °F 82% 29.98 in 10.0 mi Calm Calm - N/A   Clear
2:55 AM 62.6 °F 57.2 °F 82% 29.98 in 10.0 mi Calm Calm - N/A   Clear
3:15 AM 62.6 °F 57.2 °F 82% 29.97 in 10.0 mi North 5.8 mph - N/A   Clear
3:35 AM 62.6 °F 57.2 °F 82% 29.97 in 10.0 mi North 3.5 mph - N/A   Clear
3:55 AM 62.6 °F 57.2 °F 82% 29.96 in 10.0 mi Calm Calm - N/A   Partly Cloudy
4:15 AM 62.6 °F 57.2 °F 82% 29.96 in 10.0 mi ENE 3.5 mph - N/A   Mostly Cloudy
4:35 AM 62.6 °F 57.2 °F 82% 29.98 in 10.0 mi ENE 5.8 mph - N/A   Mostly Cloudy
4:55 AM 62.6 °F 57.2 °F 82% 29.98 in 10.0 mi Calm Calm - N/A   Overcast
5:15 AM 62.6 °F 57.2 °F 82% 29.99 in 10.0 mi Calm Calm - N/A   Mostly Cloudy
5:35 AM 62.6 °F 57.2 °F 82% 30.00 in 10.0 mi North 5.8 mph - N/A   Mostly Cloudy
5:55 AM 62.6 °F 57.2 °F 82% 29.98 in 10.0 mi NW 5.8 mph - N/A   Overcast
6:15 AM 60.8 °F 57.2 °F 88% 29.98 in 10.0 mi North 6.9 mph - N/A Rain Light Rain
6:35 AM 62.6 °F 57.2 °F 82% 29.99 in 10.0 mi North 6.9 mph - N/A   Scattered Clouds
6:55 AM 62.6 °F 57.2 °F 82% 30.00 in 10.0 mi Calm Calm - N/A   Overcast
7:49 AM 62.6 °F 57.2 °F 82% 29.99 in 10.0 mi North 3.5 mph - N/A   Mostly Cloudy
8:47 AM 64.4 °F 57.2 °F 77% 30.01 in 10.0 mi East 3.5 mph - N/A   Mostly Cloudy
9:50 AM 66.2 °F 59.0 °F 78% 30.01 in 10.0 mi ENE 3.5 mph - N/A   Mostly Cloudy
10:55 AM 69.8 °F 60.8 °F 73% 30.01 in 10.0 mi North 5.8 mph - N/A   Mostly Cloudy
11:51 AM 71.6 °F 57.2 °F 60% 30.01 in 10.0 mi NNW 9.2 mph - N/A   Mostly Cloudy
12:50 PM 73.4 °F 57.2 °F 57% 30.00 in 10.0 mi North 9.2 mph - N/A   Mostly Cloudy
1:47 PM 71.6 °F 59.0 °F 64% 30.00 in 10.0 mi North 10.4 mph - N/A   Mostly Cloudy
2:47 PM 69.8 °F 57.2 °F 64% 29.99 in 10.0 mi North 15.0 mph - N/A   Mostly Cloudy
3:55 PM 71.6 °F 55.4 °F 57% 29.98 in 10.0 mi North 8.1 mph - N/A   Mostly Cloudy
4:50 PM 75.2 °F 57.2 °F 53% 29.97 in 10.0 mi North 10.4 mph - N/A   Mostly Cloudy
5:50 PM 71.6 °F 59.0 °F 64% 29.96 in 10.0 mi North 10.4 mph - N/A   Mostly Cloudy
6:55 PM 71.6 °F 57.2 °F 60% 29.96 in 10.0 mi NW 6.9 mph - N/A   Mostly Cloudy
8:55 PM 66.2 °F 57.2 °F 73% 29.98 in 10.0 mi North 6.9 mph - N/A   Partly Cloudy
9:15 PM 66.2 °F 57.2 °F 73% 29.98 in 10.0 mi North 5.8 mph - N/A   Clear
9:35 PM 64.4 °F 57.2 °F 77% 29.99 in 10.0 mi North 5.8 mph - N/A   Clear
9:55 PM 64.4 °F 55.4 °F 73% 30.00 in 10.0 mi North 4.6 mph - N/A   Clear
10:15 PM 64.4 °F 55.4 °F 73% 30.00 in 10.0 mi North 3.5 mph - N/A   Clear
10:35 PM 64.4 °F 57.2 °F 77% 29.99 in 10.0 mi North 3.5 mph - N/A   Clear
10:55 PM 64.4 °F 57.2 °F 77% 30.00 in 10.0 mi North 3.5 mph - N/A   Clear
11:15 PM 62.6 °F 57.2 °F 82% 29.99 in 10.0 mi NNW 4.6 mph - N/A   Clear
11:35 PM 62.6 °F 57.2 °F 82% 29.99 in 10.0 mi Calm Calm - N/A   Clear
11:55 PM 62.6 °F 57.2 °F 82% 29.99 in 10.0 mi NNE 3.5 mph - N/A   Clear